Satellite: FO-70
Catalog number: 37380
Epoch time:      11335.42573440
Element set:    0042
Inclination:      071.9748 deg
RA of node:       030.7858 deg
Eccentricity:    0.0018597
Arg of perigee:   322.4343 deg
Mean anomaly:     037.5518 deg
Mean motion:   14.76570860 rev/day
Decay rate:      1.017e-05 rev/day^2
Epoch rev:           00664
Checksum:              301

/EX
SB KEPS @ AMSAT  $ORB11335.W
Orbital Elements  11335.WEATHER

HR AMSAT ORBITAL ELEMENTS FOR WEATHER SATELLITES
FROM WA5QGD FORT WORTH,TX December 1, 2011
Send Subscribe/unsubscribe to KEPS at http://www.amsat.org/mailman/listinfo/kep
BID: ORB11335.W
TO ALL RADIO AMATEURS BT

Satellite: NOAA-10
Catalog number: 16969
Epoch time:      11334.96216688
Element set:    0725
Inclination:      098.6036 deg
RA of node:       002.3493 deg
Eccentricity:    0.0013071
Arg of perigee:   096.9139 deg
Mean anomaly:     263.3530 deg
Mean motion:   14.27505760 rev/day
Decay rate:       2.12e-06 rev/day^2
Epoch rev:           31144
Checksum:              293

Satellite: NOAA-11
Catalog number: 19531
Epoch time:      11334.87508242
Element set:    0721
Inclination:      098.7461 deg
RA of node:       059.1312 deg
Eccentricity:    0.0011970
Arg of perigee:   073.2946 deg
Mean anomaly:     286.9560 deg
Mean motion:   14.14941278 rev/day
Decay rate:       1.06e-06 rev/day^2
Epoch rev:           19632
Checksum:              299

Satellite: NOAA-12
Catalog number: 21263
Epoch time:      11334.98445612
Element set:    0231
Inclination:      098.7439 deg
RA of node:       352.4500 deg
Eccentricity:    0.0014625
Arg of perigee:   061.2471 deg
Mean anomaly:     299.0176 deg
Mean motion:   14.25459545 rev/day
Decay rate:       1.16e-06 rev/day^2
Epoch rev:           06817
Checksum:              290

Satellite: MET-3/5
Catalog number: 21655
Epoch time:      11334.65674423
Element set:    0274
Inclination:      082.5562 deg
RA of node:       293.1483 deg
Eccentricity:    0.0014670
Arg of perigee:   099.5718 deg
Mean anomaly:     260.7051 deg
Mean motion:   13.17030732 rev/day
Decay rate:        5.1e-07 rev/day^2
Epoch rev:           97563
Checksum:              299

Satellite: MET-2/21
Catalog number: 22782
Epoch time:      11334.64782763
Element set:    0270
Inclination:      082.5471 deg
RA of node:       190.8154 deg
Eccentricity:    0.0022547
Arg of perigee:   355.9430 deg
Mean anomaly:     004.1548 deg
Mean motion:   13.83669409 rev/day
Decay rate:       -1.2e-07 rev/day^2
Epoch rev:           92157
Checksum:              304

Satellite: OKEAN-4
Catalog number: 23317
Epoch time:      11334.93604875
Element set:    0791
Inclination:      082.5411 deg
RA of node:       217.4052 deg
Eccentricity:    0.0020204
Arg of perigee:   292.0616 deg
Mean anomaly:     067.8453 deg
Mean motion:   14.83409522 rev/day
Decay rate:      1.691e-05 rev/day^2
Epoch rev:           92526
Checksum:              288

Satellite: NOAA-14
Catalog number: 23455
Epoch time:      11334.90932379
Element set:    0712
Inclination:      098.8422 deg
RA of node:       055.8057 deg
Eccentricity:    0.0009502
Arg of perigee:   161.9598 deg
Mean anomaly:     198.1911 deg
Mean motion:   14.13857390 rev/day
Decay rate:       1.60e-06 rev/day^2
Epoch rev:           87263
Checksum:              320

Satellite: NOAA-15
Catalog number: 25338
Epoch time:      11335.42343281
Element set:      41
Inclination:      098.6723 deg
RA of node:       319.4248 deg
Eccentricity:    0.0010355
Arg of perigee:   331.3077 deg
Mean anomaly:     028.7550 deg
Mean motion:   14.24996227 rev/day
Decay rate:       3.66e-06 rev/day^2
Epoch rev:           70454
Checksum:              294

Satellite: RESURS
Catalog number: 25394
Epoch time:      11334.95829255
Element set:    0960
Inclination:      098.3063 deg
RA of node:       328.8571 deg
Eccentricity:    0.0002220
Arg of perigee:   089.0247 deg
Mean anomaly:     271.1188 deg
Mean motion:   14.24259196 rev/day
Decay rate:       1.03e-06 rev/day^2
Epoch rev:           69604
Checksum:              303

Satellite: FENGYUN1
Catalog number: 25730
Epoch time:      11334.92859583
Element set:    0495
Inclination:      098.8324 deg
RA of node:       292.6106 deg
Eccentricity:    0.0022023
Arg of perigee:   210.5938 deg
Mean anomaly:     149.3938 deg
Mean motion:   14.09095609 rev/day
Decay rate:      1.069e-05 rev/day^2
Epoch rev:           64654
Checksum:              323

Satellite: OKEAN-0
Catalog number: 25860
Epoch time:      11334.96894966
Element set:    0497
Inclination:      097.9076 deg
RA of node:       297.0539 deg
Eccentricity:    0.0001313
Arg of perigee:   103.7379 deg
Mean anomaly:     256.3975 deg
Mean motion:   14.73982114 rev/day
Decay rate:       9.38e-06 rev/day^2
Epoch rev:           66522
Checksum:              349

Satellite: NOAA-16
Catalog number: 26536
Epoch time:      11335.37335250
Element set:     523
Inclination:      099.1226 deg
RA of node:       009.1670 deg
Eccentricity:    0.0009872
Arg of perigee:   283.4209 deg
Mean anomaly:     076.5902 deg
Mean motion:   14.12678154 rev/day
Decay rate:       4.05e-06 rev/day^2
Epoch rev:           57696
Checksum:              306

